Weather History for Green Bay, WI

Change the Weather History Date:

Sunday, April 13, 2014

  Actual Average Record
Temperature  
Mean Temperature 44 °F 43 °F  
Max Temperature 50 °F 53 °F 78 °F (1938)
Min Temperature 37 °F 33 °F 18 °F (1950)
Degree Days  
Heating Degree Days 21 22  
Month to date heating degree days 306 322  
Since 1 July heating degree days 8081 7222  
Cooling Degree Days 0 0  
Month to date cooling degree days 0 0  
Year to date cooling degree days 0 0  
Moisture  
Dew Point 40 °F    
Average Humidity 87    
Maximum Humidity 100    
Minimum Humidity 74    
Precipitation  
Precipitation 1.02 in 0.10 in 1.20 in (1952)
Month to date precipitation 1.93 1.10  
Year to date precipitation 5.63 5.19  
Snow  
Snow 0.00 in 0.10 in 1.40 in (1934)
Month to date snowfall 0.2 1.8  
Since 1 July snowfall 68.6 50.1  
Snow Depth 0.00 in    
Sea Level Pressure  
Sea Level Pressure 29.74 in    
Wind  
Wind Speed 11 mph (NNE)    
Max Wind Speed 32 mph    
Max Gust Speed 42 mph    
Visibility 5 miles    
Events Fog , Rain    
T = Trace of Precipitation, MM = Missing Value Source: NWS Daily Summary

Daily Weather History Graph

Daily Weather History Graph

Search for Another Location

Airport:

Trip Planner

Search our weather history database for the weather conditions in past years. The results will help you decide how hot, cold, wet, or windy it might be!

Date:

Astronomy

Apr. 13, 2014 Rise Set
Actual Time 6:12 AM CDT 7:34 PM CDT
Civil Twilight 5:41 AM CDT 8:05 PM CDT
Nautical Twilight 5:05 AM CDT 8:41 PM CDT
Astronomical Twilight 4:26 AM CDT 9:20 PM CDT
Moon 6:09 PM CDT (4/13) 5:14 AM CDT (4/13)
Length of Visible Light 14h 23m
Length of Day
13h 22m
Waxing Gibbous, 97% of the Moon is Illuminated
Apr 13
Waxing Gibbous
Apr 15
Full
Apr 22
Last Quarter
Apr 29
New
May 6
First Quarter

Hourly Weather History & Observations

Time (CDT) Temp. Windchill Dew Point Humidity Pressure Visibility Wind Dir Wind Speed Gust Speed Precip Events Conditions
12:53 AM 37.0 °F 31.6 °F 37.0 °F 100% 29.76 in 0.5 mi NE 6.9 mph - N/A Fog Fog
1:53 AM 37.0 °F 29.3 °F 37.0 °F 100% 29.75 in 0.5 mi NE 11.5 mph - N/A Fog Fog
2:53 AM 37.9 °F 35.5 °F 37.9 °F 100% 29.76 in 0.8 mi ENE 3.5 mph - 0.04 in Rain Light Rain
3:02 AM 37.9 °F 35.5 °F 37.9 °F 100% 29.73 in 1.0 mi NE 3.5 mph - 0.01 in Rain Rain
3:20 AM 37.9 °F 33.5 °F 37.9 °F 100% 29.73 in 3.0 mi NNE 5.8 mph - 0.06 in Rain Rain
3:53 AM 37.9 °F 32.1 °F 37.9 °F 100% 29.72 in 4.0 mi East 8.1 mph - 0.13 in Rain Light Rain
4:53 AM 37.0 °F 30.4 °F 37.0 °F 100% 29.77 in 4.0 mi NNE 9.2 mph - 0.06 in Rain Rain
5:33 AM 37.0 °F 29.3 °F 37.0 °F 100% 29.67 in 2.0 mi NNE 11.5 mph - 0.05 in   Overcast
5:49 AM 37.4 °F 30.3 °F 37.4 °F 100% 29.73 in 2.0 mi NNW 10.4 mph - 0.05 in   Overcast
5:53 AM 37.0 °F 30.4 °F 37.0 °F 100% 29.75 in 2.0 mi NNW 9.2 mph - 0.05 in   Overcast
6:53 AM 37.9 °F 32.7 °F 37.0 °F 97% 29.76 in 2.0 mi North 6.9 mph - N/A   Overcast
7:53 AM 37.9 °F 32.1 °F 37.9 °F 100% 29.78 in 2.0 mi North 8.1 mph - N/A   Overcast
8:00 AM 39.0 °F 33.4 °F 37.9 °F 96% 29.76 in 5.0 mi North 8.1 mph - N/A   Overcast
8:53 AM 39.9 °F 35.1 °F 39.0 °F 97% 29.79 in 6.0 mi North 6.9 mph - N/A   Overcast
9:51 AM 41.0 °F 36.4 °F 39.2 °F 93% 29.79 in 9.0 mi NNE 6.9 mph - N/A   Overcast
9:53 AM 42.1 °F 37.7 °F 39.9 °F 92% 29.81 in 9.0 mi North 6.9 mph - N/A   Overcast
10:53 AM 43.0 °F 38.2 °F 41.0 °F 93% 29.79 in 10.0 mi NNE 8.1 mph - N/A   Overcast
11:53 AM 45.0 °F - 41.0 °F 86% 29.83 in 10.0 mi Calm Calm - N/A   Overcast
12:12 PM 46.0 °F 44.8 °F 41.0 °F 83% 29.82 in 10.0 mi NE 3.5 mph - N/A   Overcast
12:53 PM 46.9 °F - 42.1 °F 83% 29.82 in 10.0 mi NNE 6.9 mph - N/A   Overcast
1:53 PM 48.9 °F - 43.0 °F 80% 29.80 in 10.0 mi North 4.6 mph - N/A   Overcast
2:53 PM 50.0 °F - 43.0 °F 77% 29.80 in 10.0 mi NE 11.5 mph - N/A   Overcast
3:53 PM 48.9 °F - 43.0 °F 80% 29.77 in 10.0 mi NE 11.5 mph - N/A   Overcast
4:09 PM 48.9 °F - 43.0 °F 80% 29.75 in 10.0 mi NE 12.7 mph - N/A   Overcast
4:53 PM 46.9 °F - 43.0 °F 86% 29.76 in 10.0 mi NE 12.7 mph - N/A   Overcast
5:53 PM 46.0 °F 43.1 °F 43.0 °F 89% 29.75 in 9.0 mi ESE 5.8 mph - 0.01 in Rain Light Rain
6:53 PM 42.8 °F 38.0 °F 42.8 °F 100% 29.68 in 3.0 mi NE 8.1 mph - N/A Rain Light Rain
7:53 PM 42.1 °F 34.9 °F 41.0 °F 96% 29.71 in 3.0 mi NE 13.8 mph - 0.14 in Rain Rain
8:28 PM 42.1 °F 36.1 °F 41.0 °F 96% 29.68 in 5.0 mi NE 10.4 mph - 0.08 in Rain Rain
8:39 PM 42.1 °F 34.9 °F 41.0 °F 96% 29.67 in 5.0 mi NNE 13.8 mph - 0.09 in Rain Rain
8:53 PM 42.1 °F 33.6 °F 41.0 °F 96% 29.68 in 5.0 mi NNE 18.4 mph 27.6 mph 0.13 in Rain Rain
9:53 PM 37.9 °F 25.7 °F 37.0 °F 97% 29.69 in 4.0 mi NE 29.9 mph 39.1 mph 0.11 in Rain Light Rain
10:53 PM 39.0 °F 29.9 °F 37.9 °F 96% 29.65 in 5.0 mi NNE 17.3 mph - 0.08 in Rain Rain
11:24 PM 39.9 °F 30.5 °F 39.9 °F 100% 29.62 in 4.0 mi NNE 19.6 mph - 0.05 in Rain Rain
11:53 PM 39.9 °F 30.5 °F 39.9 °F 100% 29.63 in 5.0 mi NNE 19.6 mph 24.2 mph 0.11 in Rain Light Rain